TimeEDT,TemperatureF,Dew PointF,Humidity,Sea Level PressureIn,VisibilityMPH,Wind Direction,Wind SpeedMPH,Gust SpeedMPH,PrecipitationIn,Events,Conditions,WindDirDegrees,DateUTC
12:15 AM,30.2,24.8,80,30.20,10.0,Calm,Calm,-,N/A,,Clear,0,2013-03-15 04:15:00
12:35 AM,30.2,26.6,86,30.20,10.0,Calm,Calm,-,N/A,,Clear,0,2013-03-15 04:35:00
1:15 AM,28.4,26.6,93,30.20,10.0,Calm,Calm,-,N/A,,Clear,0,2013-03-15 05:15:00
1:35 AM,28.4,26.6,93,30.20,10.0,Calm,Calm,-,N/A,,Clear,0,2013-03-15 05:35:00
1:55 AM,28.4,24.8,86,30.20,10.0,Calm,Calm,-,N/A,,Clear,0,2013-03-15 05:55:00
2:15 AM,28.4,26.6,93,30.20,10.0,Calm,Calm,-,N/A,,Clear,0,2013-03-15 06:15:00
2:35 AM,28.4,26.6,93,30.20,10.0,Calm,Calm,-,N/A,,Clear,0,2013-03-15 06:35:00
2:55 AM,28.4,26.6,93,30.20,10.0,Calm,Calm,-,N/A,,Clear,0,2013-03-15 06:55:00
3:35 AM,28.4,26.6,93,30.18,10.0,Calm,Calm,-,N/A,,Clear,0,2013-03-15 07:35:00
3:55 AM,26.6,26.6,100,30.18,10.0,Calm,Calm,-,N/A,,Clear,0,2013-03-15 07:55:00
4:15 AM,26.6,26.6,100,30.18,10.0,Calm,Calm,-,N/A,,Clear,0,2013-03-15 08:15:00
4:35 AM,26.6,26.6,100,30.17,10.0,Calm,Calm,-,N/A,,Clear,0,2013-03-15 08:35:00
4:55 AM,26.6,26.6,100,30.18,10.0,Calm,Calm,-,N/A,,Clear,0,2013-03-15 08:55:00
5:15 AM,26.6,26.6,100,30.19,10.0,Calm,Calm,-,N/A,,Clear,0,2013-03-15 09:15:00
5:35 AM,26.6,26.6,100,30.20,10.0,Calm,Calm,-,N/A,,Clear,0,2013-03-15 09:35:00
5:55 AM,26.6,26.6,100,30.20,10.0,Calm,Calm,-,N/A,,Clear,0,2013-03-15 09:55:00
6:15 AM,26.6,26.6,100,30.19,10.0,Calm,Calm,-,N/A,,Clear,0,2013-03-15 10:15:00
6:35 AM,26.6,26.6,100,30.19,10.0,Calm,Calm,-,N/A,,Clear,0,2013-03-15 10:35:00
6:55 AM,26.6,26.6,100,30.19,10.0,Calm,Calm,-,N/A,,Clear,0,2013-03-15 10:55:00
7:15 AM,26.6,26.6,100,30.20,10.0,Calm,Calm,-,N/A,,Clear,0,2013-03-15 11:15:00
7:35 AM,26.6,26.6,100,30.21,10.0,Calm,Calm,-,N/A,,Clear,0,2013-03-15 11:35:00
7:55 AM,26.6,26.6,100,30.21,9.0,Calm,Calm,-,N/A,,Clear,0,2013-03-15 11:55:00
8:15 AM,26.6,26.6,100,30.21,7.0,North,-9999.0,-,N/A,,Clear,0,2013-03-15 12:15:00
8:35 AM,26.6,26.6,100,30.22,9.0,Calm,Calm,-,N/A,,Clear,0,2013-03-15 12:35:00
8:55 AM,28.4,28.4,100,30.22,10.0,Calm,Calm,-,N/A,,Clear,0,2013-03-15 12:55:00
9:15 AM,32.0,32.0,100,30.23,10.0,Calm,Calm,-,N/A,,Clear,0,2013-03-15 13:15:00
9:35 AM,35.6,28.4,75,30.23,10.0,Calm,Calm,-,N/A,,Clear,0,2013-03-15 13:35:00
9:55 AM,39.2,26.6,61,30.23,10.0,Calm,Calm,-,N/A,,Clear,0,2013-03-15 13:55:00
10:35 AM,46.4,23.0,40,30.22,10.0,SW,3.5,-,N/A,,Clear,220,2013-03-15 14:35:00
10:55 AM,48.2,21.2,34,30.20,10.0,SSW,3.5,-,N/A,,Clear,210,2013-03-15 14:55:00
12:15 PM,53.6,23.0,30,30.16,10.0,SW,5.8,-,N/A,,Clear,220,2013-03-15 16:15:00
12:35 PM,55.4,23.0,29,30.15,10.0,SSW,4.6,-,N/A,,Clear,200,2013-03-15 16:35:00
12:55 PM,57.2,24.8,29,30.13,10.0,South,5.8,-,N/A,,Clear,170,2013-03-15 16:55:00
1:15 PM,57.2,26.6,31,30.13,10.0,SW,9.2,-,N/A,,Clear,220,2013-03-15 17:15:00
1:35 PM,59.0,26.6,29,30.12,10.0,SSW,5.8,17.3,N/A,,Clear,200,2013-03-15 17:35:00
1:55 PM,59.0,28.4,31,30.11,10.0,WSW,10.4,16.1,N/A,,Clear,240,2013-03-15 17:55:00
2:15 PM,59.0,28.4,31,30.09,10.0,SW,11.5,20.7,N/A,,Clear,230,2013-03-15 18:15:00
2:35 PM,60.8,28.4,29,30.08,10.0,SW,9.2,16.1,N/A,,Clear,220,2013-03-15 18:35:00
2:55 PM,62.6,28.4,27,30.06,10.0,SSW,8.1,-,N/A,,Clear,200,2013-03-15 18:55:00
3:15 PM,62.6,30.2,30,30.05,10.0,WSW,9.2,-,N/A,,Clear,240,2013-03-15 19:15:00
3:35 PM,64.4,32.0,30,30.03,10.0,WSW,6.9,-,N/A,,Clear,240,2013-03-15 19:35:00
3:55 PM,64.4,32.0,30,30.02,10.0,SSW,9.2,-,N/A,,Clear,210,2013-03-15 19:55:00
4:15 PM,66.2,32.0,28,30.01,10.0,SW,5.8,-,N/A,,Clear,230,2013-03-15 20:15:00
4:35 PM,66.2,32.0,28,30.00,10.0,SSW,4.6,-,N/A,,Clear,210,2013-03-15 20:35:00
4:55 PM,68.0,33.8,28,29.99,10.0,WSW,11.5,17.3,N/A,,Clear,240,2013-03-15 20:55:00
5:15 PM,66.2,33.8,30,29.97,10.0,SW,4.6,-,N/A,,Clear,220,2013-03-15 21:15:00
5:35 PM,66.2,33.8,30,29.97,10.0,South,4.6,-,N/A,,Clear,190,2013-03-15 21:35:00
5:55 PM,66.2,33.8,30,29.96,10.0,SW,9.2,16.1,N/A,,Clear,230,2013-03-15 21:55:00
6:15 PM,66.2,33.8,30,29.95,10.0,SW,6.9,-,N/A,,Clear,220,2013-03-15 22:15:00
6:35 PM,66.2,33.8,30,29.95,10.0,SW,3.5,-,N/A,,Clear,220,2013-03-15 22:35:00
6:55 PM,66.2,35.6,32,29.95,10.0,South,3.5,-,N/A,,Clear,190,2013-03-15 22:55:00
7:15 PM,64.4,37.4,37,29.95,10.0,South,3.5,-,N/A,,Clear,190,2013-03-15 23:15:00
7:35 PM,62.6,37.4,39,29.94,10.0,South,3.5,-,N/A,,Clear,170,2013-03-15 23:35:00
7:55 PM,59.0,37.4,45,29.95,10.0,Calm,Calm,-,N/A,,Clear,0,2013-03-15 23:55:00
8:15 PM,57.2,37.4,48,29.95,10.0,Calm,Calm,-,N/A,,Clear,0,2013-03-16 00:15:00
8:35 PM,55.4,39.2,54,29.95,10.0,SSE,3.5,-,N/A,,Clear,160,2013-03-16 00:35:00
8:55 PM,53.6,39.2,58,29.94,10.0,SSE,3.5,-,N/A,,Clear,160,2013-03-16 00:55:00
9:15 PM,55.4,37.4,51,29.94,10.0,Calm,Calm,-,N/A,,Clear,0,2013-03-16 01:15:00
9:35 PM,57.2,37.4,48,29.94,10.0,South,3.5,-,N/A,,Clear,190,2013-03-16 01:35:00
9:55 PM,59.0,37.4,45,29.94,10.0,SSW,5.8,-,N/A,,Clear,200,2013-03-16 01:55:00
10:15 PM,59.0,37.4,45,29.94,10.0,SSW,5.8,-,N/A,,Clear,200,2013-03-16 02:15:00
10:35 PM,59.0,37.4,45,29.94,10.0,SSW,4.6,-,N/A,,Clear,200,2013-03-16 02:35:00
10:55 PM,59.0,37.4,45,29.94,10.0,SW,5.8,-,N/A,,Clear,220,2013-03-16 02:55:00
11:15 PM,59.0,37.4,45,29.95,10.0,SW,4.6,-,N/A,,Clear,220,2013-03-16 03:15:00
11:35 PM,59.0,37.4,45,29.95,10.0,SW,5.8,-,N/A,,Clear,230,2013-03-16 03:35:00
11:55 PM,57.2,37.4,48,29.95,10.0,SW,4.6,-,N/A,,Partly Cloudy,220,2013-03-16 03:55:00